QPF
0.00 0.00 0.01 0.01 0.01 0.01 0.00 0.00 0.00 0.00 0.00 0.00 0.01 0.01 0.02 0.02 0.03 0.01 0.00 0.00 0.00 0.01 0.01 0.01 0.02 0.02 0.03 0.02 0.02 0.01 0.01 0.02 0.01 0.01 0.01 0.02 0.03 0.02 0.01 0.01 0.03 0.03 0.02 0.01 0.01 0.02 0.02 0.03 0.03
0.00 0.01 0.01 0.01 0.01 0.01 0.00 0.00 0.00 0.00 0.00 0.00 0.01 0.01 0.01 0.01 0.01 0.01 0.00 0.00 0.01 0.02 0.02 0.01 0.02 0.03 0.03 0.03 0.02 0.02 0.02 0.02 0.02 0.01 0.01 0.02 0.02 0.02 0.01 0.01 0.02 0.02 0.02 0.01 0.01 0.02 0.02 0.03 0.03
0.01 0.01 0.01 0.01 0.01 0.00 0.00 0.00 0.00 0.00 0.00 0.00 0.01 0.01 0.01 0.01 0.01 0.01 0.01 0.01 0.01 0.02 0.02 0.02 0.02 0.04 0.05 0.04 0.03 0.02 0.02 0.02 0.03 0.02 0.01 0.03 0.04 0.03 0.01 0.01 0.01 0.02 0.03 0.01 0.01 0.02 0.04 0.04 0.02
0.01 0.01 0.01 0.01 0.01 0.00 0.00 0.00 0.00 0.00 0.01 0.01 0.01 0.01 0.01 0.01 0.01 0.00 0.01 0.01 0.02 0.02 0.01 0.02 0.02 0.03 0.05 0.04 0.04 0.03 0.02 0.02 0.03 0.03 0.02 0.03 0.04 0.04 0.02 0.02 0.01 0.02 0.02 0.02 0.02 0.02 0.04 0.04 0.02
0.01 0.01 0.01 0.01 0.00 0.00 0.00 0.01 0.00 0.01 0.01 0.01 0.01 0.01 0.01 0.00 0.00 0.00 0.01 0.02 0.02 0.02 0.01 0.01 0.02 0.03 0.04 0.05 0.04 0.04 0.04 0.04 0.04 0.03 0.03 0.04 0.03 0.03 0.01 0.01 0.01 0.02 0.03 0.02 0.01 0.01 0.01 0.02 0.02
0.02 0.01 0.01 0.00 0.00 0.00 0.00 0.01 0.01 0.01 0.01 0.01 0.01 0.01 0.01 0.01 0.00 0.01 0.01 0.02 0.02 0.02 0.02 0.02 0.03 0.03 0.04 0.04 0.05 0.04 0.04 0.04 0.05 0.03 0.03 0.03 0.03 0.03 0.01 0.01 0.01 0.02 0.03 0.01 0.01 0.01 0.01 0.01 0.02
0.01 0.01 0.00 0.00 0.00 0.00 0.00 0.00 0.00 0.01 0.00 0.01 0.00 0.00 0.00 0.01 0.01 0.01 0.01 0.01 0.02 0.02 0.02 0.03 0.05 0.05 0.05 0.04 0.04 0.04 0.04 0.04 0.03 0.03 0.03 0.03 0.02 0.02 0.02 0.02 0.01 0.01 0.01 0.01 0.01 0.01 0.01 0.00 0.01
0.01 0.01 0.00 0.00 0.00 0.00 0.00 0.00 0.00 0.00 0.00 0.00 0.00 0.00 0.00 0.01 0.01 0.01 0.01 0.02 0.02 0.02 0.03 0.03 0.05 0.06 0.06 0.06 0.07 0.06 0.04 0.04 0.03 0.03 0.02 0.02 0.01 0.02 0.02 0.02 0.01 0.01 0.01 0.01 0.01 0.00 0.00 0.00 0.00
0.02 0.02 0.01 0.00 0.00 0.00 0.00 0.00 0.00 0.00 0.00 0.00 0.00 0.01 0.00 0.01 0.01 0.01 0.02 0.02 0.02 0.02 0.02 0.02 0.03 0.04 0.05 0.06 0.09 0.10 0.07 0.05 0.05 0.03 0.02 0.01 0.01 0.01 0.01 0.00 0.01 0.01 0.01 0.01 0.00 0.00 0.00 0.00 0.01
0.02 0.01 0.01 0.00 0.00 0.00 0.00 0.00 0.00 0.00 0.00 0.00 0.00 0.01 0.01 0.02 0.02 0.02 0.03 0.04 0.04 0.03 0.03 0.02 0.02 0.03 0.04 0.04 0.05 0.08 0.08 0.07 0.05 0.03 0.02 0.01 0.01 0.01 0.01 0.01 0.01 0.01 0.01 0.01 0.01 0.00 0.00 0.00 0.00
0.01 0.01 0.00 0.00 0.00 0.00 0.00 0.00 0.00 0.00 0.00 0.00 0.00 0.00 0.01 0.03 0.03 0.03 0.03 0.04 0.05 0.05 0.04 0.04 0.03 0.03 0.03 0.03 0.03 0.05 0.05 0.05 0.05 0.05 0.04 0.03 0.02 0.01 0.01 0.01 0.01 0.01 0.01 0.00 0.00 0.00 0.00 0.00 0.00
0.01 0.00 0.00 0.00 0.00 0.00 0.00 0.00 0.00 0.00 0.01 0.01 0.01 0.01 0.01 0.02 0.03 0.03 0.03 0.03 0.04 0.06 0.07 0.06 0.06 0.05 0.04 0.04 0.04 0.04 0.03 0.03 0.03 0.04 0.06 0.06 0.03 0.02 0.01 0.01 0.01 0.01 0.01 0.01 0.00 0.00 0.00 0.00 0.00
0.01 0.00 0.00 0.00 0.00 0.00 0.00 0.00 0.00 0.00 0.00 0.01 0.01 0.01 0.01 0.02 0.02 0.02 0.02 0.02 0.02 0.03 0.05 0.08 0.09 0.08 0.06 0.04 0.04 0.04 0.04 0.03 0.02 0.03 0.03 0.03 0.03 0.03 0.01 0.01 0.01 0.01 0.01 0.01 0.01 0.01 0.00 0.00 0.00
0.00 0.00 0.00 0.00 0.00 0.00 0.00 0.00 0.00 0.00 0.00 0.01 0.01 0.01 0.01 0.01 0.02 0.03 0.02 0.01 0.02 0.02 0.03 0.04 0.06 0.08 0.09 0.08 0.05 0.04 0.03 0.03 0.03 0.02 0.02 0.02 0.03 0.03 0.03 0.02 0.01 0.01 0.01 0.01 0.01 0.00 0.00 0.00 0.00
0.00 0.00 0.00 0.00 0.00 0.00 0.00 0.00 0.00 0.00 0.00 0.00 0.00 0.01 0.01 0.01 0.02 0.02 0.03 0.02 0.01 0.02 0.02 0.03 0.05 0.05 0.06 0.07 0.06 0.05 0.04 0.03 0.02 0.02 0.01 0.01 0.02 0.02 0.02 0.02 0.02 0.01 0.01 0.01 0.01 0.00 0.01 0.01 0.00
0.01 0.01 0.00 0.00 0.00 0.00 0.00 0.00 0.00 0.00 0.00 0.00 0.00 0.00 0.00 0.00 0.01 0.01 0.02 0.03 0.02 0.02 0.03 0.02 0.03 0.06 0.08 0.08 0.07 0.04 0.03 0.02 0.02 0.01 0.01 0.01 0.01 0.01 0.02 0.02 0.02 0.02 0.02 0.02 0.01 0.01 0.01 0.01 0.01
0.00 0.00 0.00 0.00 0.00 0.00 0.00 0.00 0.00 0.00 0.00 0.00 0.00 0.00 0.00 0.00 0.00 0.00 0.01 0.01 0.01 0.01 0.03 0.04 0.03 0.03 0.06 0.10 0.11 0.09 0.06 0.04 0.03 0.02 0.02 0.01 0.01 0.01 0.01 0.01 0.01 0.02 0.02 0.02 0.02 0.02 0.01 0.02 0.01
0.00 0.00 0.00 0.00 0.00 0.00 0.00 0.00 0.00 0.00 0.00 0.00 0.00 0.00 0.00 0.00 0.00 0.00 0.00 0.01 0.01 0.01 0.03 0.05 0.04 0.03 0.03 0.05 0.08 0.11 0.11 0.09 0.07 0.05 0.04 0.03 0.01 0.01 0.01 0.01 0.01 0.01 0.01 0.02 0.02 0.01 0.01 0.02 0.02
0.00 0.00 0.00 0.00 0.00 0.00 0.00 0.00 0.00 0.00 0.00 0.00 0.00 0.00 0.00 0.00 0.00 0.00 0.00 0.01 0.00 0.00 0.02 0.03 0.03 0.04 0.04 0.04 0.05 0.07 0.10 0.10 0.09 0.07 0.06 0.05 0.03 0.02 0.01 0.01 0.01 0.01 0.01 0.02 0.02 0.01 0.01 0.02 0.02
0.00 0.00 0.00 0.00 0.00 0.00 0.00 0.00 0.00 0.00 0.00 0.00 0.00 0.00 0.00 0.00 0.00 0.00 0.00 0.00 0.01 0.00 0.00 0.02 0.02 0.02 0.03 0.03 0.05 0.07 0.06 0.08 0.09 0.09 0.08 0.07 0.04 0.03 0.03 0.02 0.01 0.01 0.01 0.01 0.02 0.01 0.01 0.01 0.01
0.00 0.01 0.00 0.00 0.00 0.00 0.00 0.00 0.00 0.00 0.00 0.00 0.00 0.00 0.00 0.00 0.00 0.00 0.00 0.00 0.01 0.01 0.01 0.00 0.01 0.02 0.03 0.03 0.03 0.06 0.08 0.07 0.06 0.08 0.09 0.10 0.08 0.05 0.04 0.02 0.02 0.01 0.01 0.01 0.01 0.01 0.01 0.01 0.01
0.00 0.00 0.01 0.01 0.01 0.01 0.00 0.00 0.00 0.00 0.00 0.00 0.00 0.00 0.00 0.00 0.00 0.00 0.00 0.00 0.00 0.01 0.01 0.01 0.01 0.02 0.03 0.03 0.03 0.03 0.05 0.07 0.06 0.05 0.06 0.07 0.08 0.09 0.08 0.05 0.03 0.02 0.02 0.02 0.02 0.02 0.01 0.01 0.01
0.00 0.00 0.00 0.01 0.01 0.01 0.00 0.00 0.00 0.00 0.00 0.00 0.00 0.00 0.00 0.00 0.00 0.00 0.00 0.00 0.00 0.00 0.00 0.01 0.01 0.01 0.02 0.02 0.03 0.03 0.03 0.05 0.07 0.06 0.04 0.05 0.06 0.07 0.07 0.07 0.06 0.04 0.04 0.03 0.03 0.03 0.02 0.02 0.02
0.01 0.01 0.01 0.02 0.02 0.02 0.01 0.00 0.00 0.00 0.01 0.01 0.00 0.00 0.00 0.00 0.00 0.00 0.00 0.00 0.00 0.00 0.00 0.00 0.01 0.01 0.02 0.02 0.02 0.02 0.02 0.03 0.04 0.06 0.06 0.05 0.04 0.05 0.06 0.07 0.07 0.06 0.05 0.04 0.04 0.04 0.03 0.02 0.02
0.01 0.02 0.02 0.03 0.03 0.02 0.00 0.01 0.01 0.01 0.01 0.01 0.00 0.00 0.00 0.00 0.00 0.00 0.00 0.00 0.00 0.00 0.00 0.00 0.00 0.01 0.01 0.02 0.02 0.03 0.02 0.02 0.02 0.04 0.05 0.05 0.05 0.04 0.04 0.05 0.07 0.07 0.05 0.04 0.04 0.04 0.04 0.03 0.02
0.01 0.01 0.02 0.02 0.01 0.01 0.00 0.01 0.01 0.00 0.00 0.00 0.00 0.00 0.00 0.00 0.00 0.00 0.00 0.00 0.00 0.00 0.00 0.00 0.00 0.00 0.01 0.01 0.02 0.03 0.03 0.03 0.02 0.02 0.04 0.05 0.05 0.04 0.03 0.03 0.04 0.06 0.06 0.06 0.05 0.04 0.04 0.04 0.04
0.01 0.01 0.01 0.02 0.02 0.01 0.00 0.00 0.00 0.00 0.00 0.00 0.00 0.00 0.00 0.00 0.00 0.00 0.00 0.00 0.00 0.00 0.00 0.00 0.00 0.00 0.01 0.01 0.01 0.02 0.03 0.03 0.03 0.03 0.03 0.03 0.04 0.05 0.05 0.04 0.03 0.03 0.04 0.05 0.06 0.06 0.05 0.05 0.04
0.01 0.01 0.01 0.03 0.03 0.01 0.00 0.00 0.00 0.00 0.00 0.00 0.00 0.00 0.00 0.00 0.00 0.00 0.00 0.00 0.00 0.00 0.00 0.00 0.00 0.01 0.01 0.01 0.01 0.02 0.02 0.03 0.04 0.04 0.04 0.03 0.03 0.04 0.05 0.05 0.04 0.04 0.04 0.04 0.05 0.05 0.06 0.06 0.05
0.01 0.02 0.01 0.02 0.02 0.01 0.01 0.01 0.00 0.00 0.00 0.00 0.00 0.00 0.00 0.00 0.00 0.00 0.00 0.00 0.00 0.00 0.00 0.01 0.01 0.01 0.01 0.01 0.01 0.01 0.02 0.03 0.04 0.05 0.05 0.04 0.04 0.04 0.03 0.03 0.04 0.04 0.04 0.04 0.04 0.04 0.04 0.04 0.04
0.01 0.02 0.02 0.02 0.01 0.01 0.01 0.01 0.00 0.00 0.00 0.00 0.00 0.00 0.00 0.00 0.00 0.00 0.00 0.00 0.01 0.01 0.01 0.01 0.01 0.01 0.01 0.01 0.01 0.01 0.01 0.02 0.04 0.04 0.05 0.05 0.05 0.05 0.04 0.03 0.03 0.02 0.02 0.03 0.03 0.04 0.04 0.05 0.04
MSLP
1014.89 1015.31 1015.88 1016.52 1017.11 1017.56 1017.80 1017.83 1017.66 1017.38 1017.09 1016.89 1016.85 1016.98 1017.26 1017.63 1018.00 1018.29 1018.46 1018.49 1018.42 1018.30 1018.22 1018.23 1018.37 1018.63 1018.97 1019.33 1019.66 1019.92 1020.10 1020.21 1020.31 1020.42 1020.61 1020.86 1021.18 1021.51 1021.81 1022.02 1022.13 1022.12 1022.03 1021.92 1021.82 1021.77 1021.80 1021.89 1022.02
1015.45 1015.98 1016.62 1017.25 1017.77 1018.09 1018.16 1017.99 1017.65 1017.21 1016.82 1016.56 1016.49 1016.64 1016.95 1017.37 1017.79 1018.12 1018.33 1018.40 1018.38 1018.32 1018.29 1018.35 1018.54 1018.84 1019.21 1019.59 1019.93 1020.18 1020.35 1020.45 1020.54 1020.66 1020.85 1021.11 1021.44 1021.79 1022.11 1022.34 1022.46 1022.46 1022.39 1022.28 1022.19 1022.15 1022.18 1022.28 1022.42
1016.06 1016.69 1017.36 1017.96 1018.39 1018.56 1018.46 1018.11 1017.60 1017.05 1016.58 1016.28 1016.22 1016.39 1016.75 1017.20 1017.65 1018.02 1018.26 1018.37 1018.38 1018.38 1018.41 1018.54 1018.78 1019.13 1019.53 1019.92 1020.26 1020.50 1020.66 1020.74 1020.81 1020.92 1021.10 1021.36 1021.68 1022.02 1022.34 1022.57 1022.70 1022.73 1022.69 1022.61 1022.54 1022.53 1022.58 1022.70 1022.86
1016.69 1017.38 1018.06 1018.61 1018.92 1018.96 1018.70 1018.21 1017.59 1016.96 1016.45 1016.15 1016.11 1016.30 1016.68 1017.16 1017.62 1018.00 1018.26 1018.39 1018.44 1018.48 1018.57 1018.76 1019.05 1019.43 1019.86 1020.26 1020.59 1020.83 1020.97 1021.05 1021.11 1021.20 1021.36 1021.60 1021.90 1022.22 1022.52 1022.76 1022.90 1022.96 1022.95 1022.92 1022.91 1022.94 1023.03 1023.17 1023.34
1017.29 1018.02 1018.67 1019.16 1019.37 1019.28 1018.91 1018.32 1017.63 1016.98 1016.47 1016.19 1016.18 1016.40 1016.80 1017.27 1017.72 1018.09 1018.34 1018.48 1018.55 1018.63 1018.76 1018.98 1019.31 1019.72 1020.15 1020.55 1020.88 1021.11 1021.25 1021.33 1021.39 1021.48 1021.63 1021.85 1022.13 1022.43 1022.72 1022.95 1023.10 1023.19 1023.23 1023.26 1023.31 1023.39 1023.52 1023.68 1023.86
1017.80 1018.53 1019.15 1019.56 1019.68 1019.50 1019.05 1018.42 1017.73 1017.10 1016.63 1016.41 1016.44 1016.68 1017.08 1017.53 1017.95 1018.28 1018.50 1018.63 1018.71 1018.79 1018.95 1019.19 1019.53 1019.94 1020.37 1020.76 1021.09 1021.32 1021.47 1021.56 1021.64 1021.76 1021.92 1022.15 1022.42 1022.70 1022.97 1023.19 1023.36 1023.47 1023.56 1023.64 1023.75 1023.88 1024.05 1024.23 1024.40
1018.20 1018.89 1019.45 1019.77 1019.82 1019.58 1019.11 1018.49 1017.84 1017.28 1016.90 1016.74 1016.82 1017.08 1017.47 1017.88 1018.26 1018.54 1018.72 1018.82 1018.88 1018.97 1019.13 1019.38 1019.71 1020.10 1020.50 1020.88 1021.19 1021.43 1021.61 1021.74 1021.88 1022.04 1022.25 1022.50 1022.78 1023.05 1023.31 1023.52 1023.69 1023.82 1023.94 1024.07 1024.22 1024.39 1024.59 1024.78 1024.95
1018.46 1019.09 1019.56 1019.80 1019.78 1019.51 1019.05 1018.48 1017.92 1017.46 1017.18 1017.11 1017.24 1017.52 1017.88 1018.26 1018.57 1018.80 1018.93 1019.01 1019.06 1019.15 1019.30 1019.53 1019.84 1020.20 1020.57 1020.92 1021.22 1021.47 1021.69 1021.89 1022.09 1022.33 1022.60 1022.90 1023.20 1023.49 1023.74 1023.94 1024.10 1024.24 1024.37 1024.52 1024.70 1024.90 1025.11 1025.31 1025.46
1018.61 1019.14 1019.51 1019.66 1019.58 1019.30 1018.87 1018.38 1017.93 1017.59 1017.43 1017.44 1017.62 1017.91 1018.24 1018.56 1018.82 1019.00 1019.10 1019.15 1019.20 1019.29 1019.44 1019.66 1019.94 1020.27 1020.60 1020.92 1021.21 1021.48 1021.74 1022.00 1022.29 1022.62 1022.97 1023.33 1023.67 1023.97 1024.22 1024.41 1024.56 1024.69 1024.82 1024.98 1025.17 1025.38 1025.59 1025.79 1025.93
1018.68 1019.09 1019.34 1019.41 1019.28 1018.99 1018.61 1018.22 1017.87 1017.66 1017.59 1017.68 1017.89 1018.17 1018.47 1018.74 1018.95 1019.08 1019.15 1019.20 1019.26 1019.36 1019.52 1019.74 1020.01 1020.31 1020.61 1020.91 1021.19 1021.47 1021.77 1022.11 1022.48 1022.89 1023.32 1023.74 1024.13 1024.45 1024.71 1024.89 1025.03 1025.14 1025.26 1025.41 1025.59 1025.81 1026.02 1026.21 1026.34
1018.73 1019.01 1019.15 1019.12 1018.95 1018.67 1018.34 1018.03 1017.79 1017.67 1017.69 1017.82 1018.04 1018.30 1018.55 1018.76 1018.91 1019.00 1019.07 1019.12 1019.21 1019.34 1019.52 1019.76 1020.04 1020.33 1020.62 1020.90 1021.19 1021.49 1021.82 1022.20 1022.64 1023.12 1023.61 1024.09 1024.52 1024.87 1025.13 1025.31 1025.44 1025.55 1025.66 1025.80 1025.97 1026.18 1026.39 1026.58 1026.71
1018.81 1018.97 1019.00 1018.90 1018.69 1018.41 1018.13 1017.89 1017.74 1017.69 1017.76 1017.91 1018.11 1018.31 1018.50 1018.64 1018.72 1018.78 1018.83 1018.90 1019.01 1019.19 1019.42 1019.70 1020.00 1020.31 1020.61 1020.90 1021.19 1021.51 1021.87 1022.29 1022.76 1023.28 1023.82 1024.33 1024.79 1025.16 1025.44 1025.64 1025.77 1025.88 1025.99 1026.13 1026.30 1026.50 1026.71 1026.89 1027.03
1018.96 1019.01 1018.96 1018.80 1018.57 1018.31 1018.07 1017.89 1017.79 1017.79 1017.87 1018.00 1018.15 1018.28 1018.37 1018.43 1018.44 1018.44 1018.47 1018.54 1018.68 1018.90 1019.18 1019.51 1019.86 1020.21 1020.55 1020.87 1021.19 1021.53 1021.91 1022.34 1022.83 1023.36 1023.90 1024.43 1024.90 1025.30 1025.60 1025.83 1025.99 1026.12 1026.25 1026.40 1026.58 1026.78 1026.98 1027.16 1027.30
1019.19 1019.17 1019.06 1018.87 1018.64 1018.41 1018.21 1018.07 1018.01 1018.02 1018.08 1018.16 1018.24 1018.28 1018.27 1018.22 1018.14 1018.08 1018.06 1018.11 1018.25 1018.49 1018.81 1019.20 1019.61 1020.02 1020.41 1020.79 1021.15 1021.52 1021.91 1022.34 1022.82 1023.34 1023.86 1024.38 1024.85 1025.27 1025.60 1025.87 1026.08 1026.27 1026.44 1026.62 1026.81 1027.02 1027.22 1027.39 1027.52
1019.49 1019.43 1019.29 1019.11 1018.90 1018.70 1018.55 1018.45 1018.40 1018.41 1018.43 1018.45 1018.44 1018.38 1018.27 1018.11 1017.93 1017.78 1017.68 1017.69 1017.80 1018.03 1018.37 1018.78 1019.24 1019.72 1020.18 1020.62 1021.04 1021.45 1021.86 1022.28 1022.74 1023.22 1023.71 1024.19 1024.66 1025.08 1025.46 1025.78 1026.06 1026.31 1026.54 1026.77 1026.99 1027.21 1027.40 1027.56 1027.68
1019.83 1019.76 1019.64 1019.48 1019.32 1019.17 1019.05 1018.98 1018.94 1018.92 1018.91 1018.87 1018.78 1018.63 1018.42 1018.16 1017.89 1017.64 1017.45 1017.37 1017.42 1017.60 1017.91 1018.32 1018.81 1019.34 1019.87 1020.38 1020.86 1021.31 1021.74 1022.16 1022.58 1023.01 1023.45 1023.90 1024.34 1024.77 1025.18 1025.56 1025.92 1026.25 1026.55 1026.84 1027.10 1027.33 1027.52 1027.67 1027.76
1020.19 1020.15 1020.07 1019.96 1019.85 1019.75 1019.66 1019.60 1019.56 1019.52 1019.46 1019.37 1019.23 1019.02 1018.74 1018.41 1018.06 1017.72 1017.44 1017.26 1017.21 1017.30 1017.54 1017.91 1018.39 1018.94 1019.51 1020.08 1020.61 1021.11 1021.56 1021.97 1022.36 1022.74 1023.13 1023.52 1023.94 1024.36 1024.80 1025.23 1025.66 1026.07 1026.45 1026.79 1027.09 1027.35 1027.54 1027.68 1027.76
1020.57 1020.57 1020.54 1020.49 1020.43 1020.37 1020.31 1020.24 1020.18 1020.11 1020.02 1019.90 1019.73 1019.50 1019.20 1018.84 1018.45 1018.06 1017.70 1017.41 1017.24 1017.22 1017.35 1017.64 1018.06 1018.59 1019.17 1019.76 1020.34 1020.86 1021.33 1021.73 1022.09 1022.42 1022.75 1023.09 1023.47 1023.88 1024.32 1024.80 1025.28 1025.75 1026.20 1026.60 1026.95 1027.23 1027.44 1027.57 1027.64
1020.97 1021.02 1021.06 1021.07 1021.05 1021.00 1020.93 1020.85 1020.75 1020.64 1020.52 1020.38 1020.22 1020.00 1019.74 1019.41 1019.03 1018.62 1018.21 1017.85 1017.57 1017.42 1017.42 1017.59 1017.92 1018.38 1018.92 1019.51 1020.08 1020.61 1021.08 1021.47 1021.79 1022.07 1022.34 1022.63 1022.95 1023.33 1023.77 1024.26 1024.78 1025.30 1025.79 1026.24 1026.62 1026.93 1027.17 1027.32 1027.41
1021.42 1021.53 1021.62 1021.67 1021.67 1021.63 1021.52 1021.39 1021.23 1021.07 1020.91 1020.77 1020.63 1020.47 1020.28 1020.04 1019.73 1019.36 1018.95 1018.55 1018.19 1017.92 1017.79 1017.82 1018.02 1018.37 1018.84 1019.36 1019.90 1020.41 1020.85 1021.21 1021.49 1021.72 1021.93 1022.15 1022.42 1022.76 1023.17 1023.64 1024.16 1024.69 1025.21 1025.69 1026.11 1026.46 1026.73 1026.92 1027.05
1021.94 1022.11 1022.24 1022.32 1022.33 1022.25 1022.09 1021.87 1021.63 1021.39 1021.19 1021.04 1020.93 1020.85 1020.76 1020.64 1020.45 1020.18 1019.83 1019.43 1019.03 1018.69 1018.44 1018.33 1018.39 1018.61 1018.96 1019.39 1019.85 1020.30 1020.68 1020.99 1021.22 1021.39 1021.54 1021.70 1021.91 1022.18 1022.54 1022.97 1023.46 1023.97 1024.49 1024.97 1025.41 1025.79 1026.11 1026.36 1026.55
1022.55 1022.76 1022.94 1023.03 1023.03 1022.90 1022.66 1022.34 1021.99 1021.66 1021.39 1021.21 1021.13 1021.12 1021.14 1021.16 1021.11 1020.97 1020.73 1020.40 1020.01 1019.63 1019.31 1019.09 1019.02 1019.10 1019.31 1019.61 1019.96 1020.32 1020.62 1020.86 1021.03 1021.14 1021.23 1021.32 1021.46 1021.66 1021.94 1022.31 1022.73 1023.19 1023.67 1024.13 1024.57 1024.97 1025.33 1025.64 1025.91
1023.23 1023.49 1023.69 1023.80 1023.77 1023.59 1023.27 1022.85 1022.38 1021.94 1021.59 1021.36 1021.27 1021.30 1021.42 1021.55 1021.65 1021.66 1021.55 1021.33 1021.01 1020.65 1020.29 1020.01 1019.83 1019.79 1019.86 1020.03 1020.26 1020.50 1020.71 1020.87 1020.96 1021.01 1021.04 1021.06 1021.13 1021.25 1021.45 1021.72 1022.05 1022.42 1022.83 1023.24 1023.65 1024.06 1024.44 1024.81 1025.15
1023.94 1024.24 1024.48 1024.60 1024.56 1024.34 1023.95 1023.43 1022.86 1022.31 1021.85 1021.55 1021.42 1021.46 1021.62 1021.84 1022.05 1022.20 1022.23 1022.13 1021.91 1021.61 1021.29 1020.99 1020.75 1020.61 1020.58 1020.62 1020.73 1020.85 1020.96 1021.04 1021.07 1021.06 1021.02 1020.99 1020.98 1021.02 1021.12 1021.28 1021.49 1021.76 1022.06 1022.39 1022.74 1023.11 1023.50 1023.89 1024.28
1024.66 1024.99 1025.26 1025.41 1025.37 1025.13 1024.70 1024.12 1023.46 1022.81 1022.26 1021.86 1021.66 1021.65 1021.80 1022.05 1022.33 1022.57 1022.72 1022.74 1022.65 1022.45 1022.20 1021.93 1021.69 1021.51 1021.40 1021.35 1021.35 1021.38 1021.40 1021.40 1021.37 1021.30 1021.22 1021.13 1021.06 1021.02 1021.01 1021.05 1021.14 1021.27 1021.44 1021.65 1021.91 1022.22 1022.56 1022.95 1023.35
1025.34 1025.70 1026.01 1026.18 1026.17 1025.94 1025.50 1024.89 1024.19 1023.47 1022.83 1022.34 1022.04 1021.94 1022.03 1022.24 1022.53 1022.81 1023.04 1023.17 1023.19 1023.11 1022.96 1022.77 1022.57 1022.40 1022.26 1022.17 1022.10 1022.06 1022.01 1021.95 1021.87 1021.76 1021.64 1021.51 1021.38 1021.26 1021.15 1021.07 1021.02 1021.00 1021.02 1021.10 1021.23 1021.44 1021.71 1022.04 1022.42
1025.99 1026.37 1026.70 1026.90 1026.92 1026.73 1026.32 1025.73 1025.02 1024.28 1023.58 1023.00 1022.60 1022.39 1022.37 1022.50 1022.73 1023.00 1023.25 1023.45 1023.57 1023.61 1023.57 1023.49 1023.37 1023.24 1023.13 1023.02 1022.93 1022.84 1022.75 1022.65 1022.54 1022.41 1022.26 1022.09 1021.91 1021.72 1021.53 1021.33 1021.14 1020.97 1020.84 1020.76 1020.75 1020.83 1020.99 1021.23 1021.53
1026.64 1027.02 1027.35 1027.58 1027.63 1027.48 1027.13 1026.59 1025.92 1025.19 1024.48 1023.85 1023.36 1023.04 1022.88 1022.89 1023.02 1023.22 1023.45 1023.67 1023.85 1023.99 1024.06 1024.09 1024.07 1024.02 1023.96 1023.87 1023.78 1023.68 1023.58 1023.46 1023.32 1023.18 1023.01 1022.83 1022.61 1022.36 1022.08 1021.78 1021.47 1021.16 1020.88 1020.64 1020.49 1020.42 1020.45 1020.57 1020.78
1027.38 1027.71 1028.02 1028.23 1028.29 1028.19 1027.89 1027.43 1026.84 1026.17 1025.48 1024.84 1024.29 1023.88 1023.60 1023.47 1023.47 1023.57 1023.74 1023.94 1024.14 1024.33 1024.50 1024.62 1024.70 1024.73 1024.73 1024.69 1024.62 1024.52 1024.41 1024.29 1024.15 1024.00 1023.82 1023.62 1023.38 1023.09 1022.75 1022.36 1021.95 1021.52 1021.11 1020.74 1020.45 1020.24 1020.14 1020.13 1020.21
1028.26 1028.52 1028.75 1028.90 1028.94 1028.84 1028.60 1028.22 1027.72 1027.14 1026.53 1025.92 1025.36 1024.89 1024.52 1024.28 1024.15 1024.13 1024.20 1024.35 1024.54 1024.75 1024.96 1025.16 1025.31 1025.41 1025.46 1025.45 1025.40 1025.32 1025.21 1025.08 1024.93 1024.78 1024.60 1024.39 1024.13 1023.81 1023.44 1022.99 1022.51 1022.00 1021.49 1021.02 1020.61 1020.29 1020.06 1019.94 1019.89
Thickness
5662 5664 5665 5659 5644 5631 5635 5648 5655 5660 5664 5670 5673 5673 5672 5671 5670 5671 5678 5684 5686 5685 5684 5683 5682 5681 5679 5678 5677 5675 5675 5674 5673 5673 5672 5671 5670 5670 5669 5669 5668 5668 5667 5666 5665 5664 5663 5662 5661
5657 5658 5654 5644 5628 5622 5632 5646 5653 5659 5665 5668 5669 5669 5668 5669 5672 5673 5676 5679 5681 5681 5680 5679 5679 5678 5676 5674 5673 5672 5671 5670 5670 5669 5669 5667 5666 5666 5665 5665 5664 5664 5663 5662 5661 5660 5659 5658 5657
5653 5652 5641 5630 5622 5623 5637 5648 5651 5658 5662 5664 5662 5663 5664 5665 5668 5670 5674 5676 5676 5677 5676 5675 5674 5674 5673 5671 5669 5668 5667 5667 5666 5666 5665 5664 5663 5662 5661 5661 5660 5660 5659 5658 5657 5656 5654 5653 5653
5645 5638 5630 5622 5624 5629 5638 5647 5650 5652 5658 5659 5658 5657 5660 5663 5665 5668 5670 5671 5671 5671 5671 5670 5670 5669 5669 5667 5666 5664 5663 5663 5662 5662 5661 5660 5659 5658 5657 5656 5656 5655 5654 5654 5652 5651 5650 5649 5648
5635 5627 5619 5615 5622 5630 5636 5643 5646 5647 5651 5653 5654 5652 5655 5660 5663 5665 5666 5666 5666 5666 5666 5666 5665 5665 5664 5663 5662 5661 5659 5659 5658 5657 5657 5656 5655 5653 5653 5652 5651 5650 5650 5649 5648 5647 5646 5645 5644
5621 5616 5608 5608 5619 5628 5634 5638 5641 5643 5645 5648 5647 5647 5651 5656 5657 5658 5661 5661 5661 5661 5661 5660 5660 5660 5659 5659 5658 5657 5655 5654 5654 5653 5652 5651 5650 5649 5648 5647 5646 5645 5645 5644 5643 5642 5641 5640 5639
5613 5608 5606 5610 5615 5623 5631 5634 5635 5637 5639 5641 5643 5642 5646 5650 5651 5653 5654 5655 5654 5655 5655 5655 5655 5655 5654 5654 5653 5652 5650 5649 5649 5648 5647 5646 5645 5644 5643 5642 5642 5641 5640 5639 5638 5637 5636 5635 5634
5611 5604 5605 5605 5611 5619 5627 5629 5632 5633 5634 5639 5640 5638 5640 5644 5645 5646 5647 5647 5647 5647 5648 5648 5649 5649 5648 5648 5647 5646 5645 5644 5643 5643 5641 5640 5639 5638 5637 5637 5636 5635 5635 5634 5633 5632 5631 5630 5629
5608 5596 5597 5604 5609 5617 5621 5622 5625 5628 5629 5630 5631 5633 5637 5638 5638 5638 5639 5639 5639 5640 5641 5641 5642 5642 5642 5642 5641 5640 5639 5638 5637 5637 5636 5635 5634 5632 5631 5631 5630 5630 5629 5628 5627 5626 5625 5624 5624
5598 5591 5600 5607 5610 5612 5614 5615 5616 5619 5619 5621 5623 5625 5627 5629 5629 5630 5630 5631 5631 5632 5633 5634 5635 5635 5635 5635 5635 5634 5633 5632 5631 5630 5630 5629 5628 5626 5625 5625 5625 5624 5624 5623 5622 5621 5620 5619 5618
5594 5592 5598 5602 5605 5607 5607 5607 5608 5611 5610 5613 5616 5617 5617 5619 5620 5620 5621 5622 5624 5625 5626 5627 5628 5628 5628 5628 5628 5627 5626 5626 5625 5624 5623 5622 5621 5621 5620 5619 5618 5618 5618 5617 5616 5615 5614 5613 5612
5587 5589 5592 5595 5598 5598 5599 5600 5599 5599 5603 5606 5608 5609 5609 5610 5611 5612 5613 5614 5615 5616 5618 5619 5620 5621 5621 5622 5621 5621 5620 5619 5619 5617 5616 5616 5615 5614 5614 5613 5612 5612 5611 5610 5610 5609 5608 5607 5606
5580 5583 5586 5587 5588 5589 5591 5590 5590 5592 5595 5596 5598 5599 5599 5600 5602 5603 5605 5606 5607 5608 5609 5610 5613 5614 5614 5615 5614 5614 5613 5613 5612 5611 5610 5610 5609 5608 5607 5606 5605 5605 5605 5604 5603 5603 5602 5601 5600
5573 5575 5576 5579 5581 5583 5582 5582 5581 5588 5587 5588 5589 5588 5589 5591 5593 5595 5596 5597 5598 5600 5602 5603 5604 5606 5607 5608 5608 5608 5607 5606 5605 5604 5604 5603 5603 5601 5600 5600 5599 5599 5598 5597 5597 5596 5596 5595 5594
5566 5566 5569 5573 5574 5575 5576 5574 5574 5579 5579 5579 5579 5580 5582 5583 5585 5586 5588 5590 5591 5593 5594 5596 5597 5598 5599 5600 5601 5601 5600 5599 5598 5598 5597 5597 5596 5595 5594 5593 5593 5592 5591 5591 5590 5590 5589 5588 5588
5557 5555 5556 5566 5566 5566 5566 5563 5571 5570 5570 5570 5571 5572 5574 5576 5577 5579 5580 5582 5583 5585 5587 5588 5590 5591 5592 5592 5593 5593 5593 5592 5592 5591 5591 5590 5589 5588 5587 5586 5586 5586 5585 5584 5584 5583 5582 5581 5581
5541 5539 5545 5552 5556 5554 5552 5553 5561 5561 5560 5561 5562 5563 5565 5568 5570 5571 5572 5574 5576 5577 5579 5580 5582 5583 5585 5585 5585 5585 5585 5585 5585 5584 5583 5582 5582 5581 5581 5580 5579 5579 5578 5577 5577 5576 5575 5575 5574
5531 5530 5534 5538 5544 5541 5537 5542 5551 5551 5551 5551 5552 5553 5555 5558 5562 5563 5564 5566 5568 5569 5571 5573 5574 5576 5577 5576 5576 5576 5576 5576 5576 5576 5576 5575 5574 5574 5574 5573 5572 5572 5571 5570 5570 5569 5568 5567 5566
5529 5526 5524 5529 5533 5530 5529 5535 5543 5545 5542 5542 5542 5543 5546 5549 5553 5554 5555 5557 5559 5561 5562 5564 5565 5566 5567 5567 5567 5567 5567 5567 5567 5567 5567 5567 5567 5566 5566 5566 5565 5564 5564 5563 5563 5562 5561 5560 5559
5518 5513 5512 5518 5523 5521 5519 5525 5534 5536 5536 5537 5536 5537 5538 5540 5543 5545 5546 5547 5549 5551 5552 5554 5556 5557 5558 5559 5559 5559 5559 5558 5558 5558 5558 5558 5558 5559 5558 5558 5558 5557 5556 5556 5555 5555 5554 5552 5551
5511 5507 5506 5509 5513 5514 5512 5521 5527 5530 5529 5531 5530 5530 5530 5532 5533 5535 5536 5537 5539 5541 5542 5545 5546 5547 5548 5549 5550 5549 5549 5549 5549 5549 5549 5549 5549 5550 5550 5550 5550 5550 5549 5549 5548 5548 5547 5546 5543
5505 5506 5503 5502 5500 5495 5504 5501 5521 5521 5520 5524 5523 5520 5519 5521 5523 5525 5527 5528 5528 5530 5532 5535 5536 5538 5538 5539 5540 5541 5541 5540 5540 5540 5540 5540 5540 5541 5541 5541 5542 5542 5542 5541 5541 5540 5540 5539 5537
5498 5499 5496 5495 5491 5486 5488 5487 5508 5512 5515 5517 5515 5512 5510 5510 5512 5515 5517 5518 5518 5519 5521 5524 5525 5527 5527 5528 5529 5529 5530 5530 5529 5529 5530 5530 5530 5531 5532 5532 5533 5533 5533 5533 5533 5532 5532 5532 5531
5490 5486 5482 5475 5474 5471 5482 5479 5497 5501 5508 5508 5505 5503 5500 5500 5501 5503 5505 5506 5507 5508 5510 5512 5514 5515 5516 5517 5518 5518 5519 5518 5519 5519 5520 5520 5520 5521 5522 5522 5523 5524 5524 5525 5525 5525 5524 5524 5523
5482 5474 5460 5453 5444 5459 5475 5474 5490 5499 5497 5497 5496 5493 5490 5489 5489 5490 5492 5494 5495 5497 5499 5501 5503 5503 5504 5505 5506 5507 5508 5508 5509 5509 5509 5510 5509 5510 5511 5512 5513 5513 5514 5514 5515 5515 5516 5515 5514
5472 5471 5457 5449 5447 5454 5465 5468 5487 5488 5486 5484 5483 5481 5480 5478 5478 5479 5480 5482 5483 5485 5486 5488 5491 5492 5493 5494 5494 5495 5496 5497 5497 5497 5498 5499 5499 5500 5501 5502 5502 5503 5503 5504 5505 5505 5506 5505 5505
5462 5459 5461 5449 5434 5437 5454 5462 5475 5479 5477 5474 5473 5471 5469 5467 5467 5468 5468 5469 5471 5472 5474 5476 5478 5480 5481 5482 5483 5484 5484 5485 5485 5486 5487 5487 5488 5489 5490 5491 5492 5492 5492 5493 5493 5494 5495 5494 5495
5454 5451 5444 5439 5432 5434 5453 5461 5471 5477 5473 5467 5463 5460 5459 5457 5456 5456 5457 5457 5458 5460 5461 5463 5465 5467 5468 5469 5471 5472 5472 5473 5474 5474 5475 5476 5477 5478 5478 5480 5481 5481 5481 5482 5482 5483 5483 5483 5483
5435 5435 5436 5433 5431 5432 5438 5463 5467 5468 5464 5458 5453 5450 5447 5445 5444 5444 5445 5445 5446 5447 5449 5450 5452 5453 5455 5456 5458 5459 5460 5460 5461 5462 5463 5464 5465 5466 5467 5468 5469 5469 5470 5470 5470 5471 5471 5471 5472
5427 5426 5425 5426 5418 5421 5435 5454 5457 5452 5448 5445 5442 5440 5437 5434 5432 5432 5433 5433 5434 5434 5436 5437 5439 5440 5441 5443 5444 5446 5447 5448 5449 5450 5451 5452 5452 5453 5454 5455 5456 5457 5457 5457 5458 5458 5459 5459 5459